Regional Weather Roundup
Issued by NWS Cleveland, OH

Home | Current Version | Previous Version | Text Only | Print | Product List | Glossary Off
Versions: 1 2 3 4 5 6 7 8 9 10 11 12 13 14 15 16 17 18 19 20 21 22 23 24 25 26 27 28 29 30 31 32 33 34 35 36 37 38 39 40 41 42 43 44 45 46 47 48 49 50

000
ASUS41 KCLE 261910
RWRCLE
OHIO REGIONAL WEATHER ROUNDUP
NATIONAL WEATHER SERVICE CLEVELAND, OH
300 PM EDT THU MAR 26 2015

NOTE: "FAIR" INDICATES FEW OR NO CLOUDS BELOW 12,000 FEET WITH NO
SIGNIFICANT WEATHER AND/OR OBSTRUCTIONS TO VISIBILITY.

OHZ001>008-015>018-024>027-034-035-043-044-262000-
   NORTHWEST OHIO

CITY           SKY/WX    TMP DP  RH WIND       PRES   REMARKS
DEFIANCE       CLOUDY    43  32  65 NW10      29.87F
FINDLAY        CLOUDY    41  32  70 NW9       29.85F
TOLEDO EXPRESS CLOUDY    41  30  65 NW9       29.86S
TOLEDO EXEC    CLOUDY    42  33  70 NW10      29.86F
LIMA           CLOUDY    41  34  76 NW13      29.86F
$$

OHZ009>014-019>023-028>033-038-089-262000-
   NORTHEAST OHIO

CITY           SKY/WX    TMP DP  RH WIND       PRES   REMARKS
CLE-HOPKINS    CLOUDY    36  33  89 NW6       29.86F
CLE-LAKEFRONT  LGT SNOW  33  33 100 W3        29.84F VSB 3/4
CUY CO. ARPT   LGT SNOW  36  36 100 N7        29.84F VSB 1
LORAIN-ELYRIA  CLOUDY    35  34  96 NW7       29.84F WCI  29
ASHTABULA      LGT SNOW  34  32  92 NW6       29.81F FOG     WCI  29
AKRON-CANTON   LGT RAIN  43  38  82 NW10      29.80S
WOOSTER        LGT RAIN  40  37  89 N10       29.81F
MANSFIELD      CLOUDY    39  37  92 NW9       29.81F
YOUNGSTOWN     CLOUDY    40  37  89 NW9       29.79R FOG
$$

OHZ042-051>053-060>062-070>072-077>081-262000-
  SOUTHWEST OHIO

CITY           SKY/WX    TMP DP  RH WIND       PRES   REMARKS
CINC-COVINGTON LGT RAIN  46  42  86 NW8       29.87S
CINC-LUNKEN    LGT RAIN  47  43  86 NW7       29.88S
HAMILTON       LGT RAIN  46  45  96 NW13      29.88F
DAYTON         CLOUDY    42  39  89 NW12      29.87F
WRIGHT-PAT AFB CLOUDY    42  40  93 NW12      29.86S
DAYTON GENERAL LGT RAIN  44  40  85 NW12      29.85F
WILMINGTON     LGT RAIN  45  40  82 NW10      29.85S
$$

OHZ036-037-039>041-045>050-054>059-063>069-073>076-082>088-262000-
  CENTRAL AND SOUTHEAST OHIO

CITY           SKY/WX    TMP DP  RH WIND       PRES   REMARKS
COLUMBUS       CLOUDY    45  41  86 NW7       29.82F
OSU AIRPORT    CLOUDY    44  40  85 NW9       29.82F
BOLTON FIELD   CLOUDY    45  41  87 NW5       29.83F
RICKENBACK AFB LGT RAIN  44  40  86 N3        29.82F
NEWARK         LGT RAIN  46  41  82 VRB3      29.81F
MARION         CLOUDY    39  36  89 NW13      29.85S FOG
LANCASTER      LGT RAIN  46  42  86 NW10      29.83S
ZANESVILLE     LGT RAIN  44  40  85 NW9       29.81R FOG
NEW PHILLY     CLOUDY    45  40  82 NW8       29.80S HAZE
$$


USA.gov is the U.S. government's official web portal to all federal, state and local government web resources and services.